Time,TemperatureF,DewpointF,PressureIn,WindDirection,WindDirectionDegrees,WindSpeedMPH,WindSpeedGustMPH,Humidity,HourlyPrecipIn,Conditions,Clouds,dailyrainin,SolarRadiationWatts/m^2,SoftwareType,DateUTC
2013-04-14 00:03:00,46.0,31.0,-100.00,WNW,285,0.0,2.0,55,0.00,,,0.00,0.000000,,2013-04-14 04:03:00,
2013-04-14 00:11:00,45.0,32.0,-100.00,West,273,1.0,3.0,61,0.00,,,0.00,0.000000,,2013-04-14 04:11:00,
2013-04-14 00:33:00,45.0,32.0,-100.00,West,273,1.0,3.0,61,0.00,,,0.00,0.000000,,2013-04-14 04:33:00,
2013-04-14 00:43:00,45.0,32.0,-100.00,West,273,1.0,3.0,61,0.00,,,0.00,0.000000,,2013-04-14 04:43:00,
2013-04-14 00:53:00,45.0,32.0,-100.00,West,273,1.0,3.0,61,0.00,,,0.00,0.000000,,2013-04-14 04:53:00,
2013-04-14 01:03:00,45.0,32.0,-100.00,West,273,1.0,3.0,61,0.00,,,0.00,0.000000,,2013-04-14 05:03:00,
2013-04-14 01:11:00,44.0,32.0,-100.00,NNW,334,2.0,3.0,63,0.00,,,0.00,0.000000,,2013-04-14 05:11:00,
2013-04-14 01:32:00,44.0,32.0,-100.00,NNW,334,2.0,3.0,63,0.00,,,0.00,0.000000,,2013-04-14 05:32:00,
2013-04-14 01:43:00,44.0,32.0,-100.00,NNW,334,2.0,3.0,63,0.00,,,0.00,0.000000,,2013-04-14 05:43:00,
2013-04-14 01:53:00,44.0,32.0,-100.00,NNW,334,2.0,3.0,63,0.00,,,0.00,0.000000,,2013-04-14 05:53:00,
2013-04-14 02:02:00,44.0,32.0,-100.00,NNW,334,2.0,3.0,63,0.00,,,0.00,0.000000,,2013-04-14 06:02:00,
2013-04-14 02:11:00,42.0,31.0,-100.00,NNW,331,0.0,3.0,64,0.00,,,0.00,0.000000,,2013-04-14 06:11:00,
2013-04-14 02:32:00,42.0,31.0,-100.00,NNW,331,0.0,3.0,64,0.00,,,0.00,0.000000,,2013-04-14 06:32:00,
2013-04-14 02:42:00,42.0,31.0,-100.00,NNW,331,0.0,3.0,64,0.00,,,0.00,0.000000,,2013-04-14 06:42:00,
2013-04-14 02:53:00,42.0,31.0,-100.00,NNW,331,0.0,3.0,64,0.00,,,0.00,0.000000,,2013-04-14 06:53:00,
2013-04-14 03:03:00,42.0,31.0,-100.00,NNW,331,0.0,3.0,64,0.00,,,0.00,0.000000,,2013-04-14 07:03:00,
2013-04-14 03:11:00,41.0,33.0,-100.00,West,269,1.0,2.0,74,0.00,,,0.00,0.000000,,2013-04-14 07:11:00,
2013-04-14 03:33:00,41.0,33.0,-100.00,West,269,1.0,2.0,74,0.00,,,0.00,0.000000,,2013-04-14 07:33:00,
2013-04-14 03:42:00,41.0,33.0,-100.00,West,269,1.0,2.0,74,0.00,,,0.00,0.000000,,2013-04-14 07:42:00,
2013-04-14 03:52:00,41.0,33.0,-100.00,West,269,1.0,2.0,74,0.00,,,0.00,0.000000,,2013-04-14 07:52:00,
2013-04-14 04:03:00,41.0,33.0,-100.00,West,269,1.0,2.0,74,0.00,,,0.00,0.000000,,2013-04-14 08:03:00,
2013-04-14 04:11:00,41.0,31.0,-100.00,NNW,344,1.0,3.0,67,0.00,,,0.00,0.000000,,2013-04-14 08:11:00,
2013-04-14 04:43:00,41.0,31.0,-100.00,NNW,344,1.0,3.0,67,0.00,,,0.00,0.000000,,2013-04-14 08:43:00,
2013-04-14 04:52:00,41.0,31.0,-100.00,NNW,344,1.0,3.0,67,0.00,,,0.00,0.000000,,2013-04-14 08:52:00,
2013-04-14 05:03:00,41.0,31.0,-100.00,NNW,344,1.0,3.0,67,0.00,,,0.00,0.000000,,2013-04-14 09:03:00,
2013-04-14 05:11:00,40.0,32.0,-100.00,NW,321,0.0,2.0,73,0.00,,,0.00,0.000000,,2013-04-14 09:11:00,
2013-04-14 05:43:00,40.0,32.0,-100.00,NW,321,0.0,2.0,73,0.00,,,0.00,0.000000,,2013-04-14 09:43:00,
2013-04-14 05:54:00,40.0,32.0,-100.00,NW,321,0.0,2.0,73,0.00,,,0.00,0.000000,,2013-04-14 09:54:00,
2013-04-14 06:03:00,40.0,32.0,-100.00,NW,321,0.0,2.0,73,0.00,,,0.00,0.000000,,2013-04-14 10:03:00,
2013-04-14 06:11:00,40.0,32.0,-100.00,NNW,327,0.0,0.0,72,0.00,,,0.00,0.000000,,2013-04-14 10:11:00,
2013-04-14 06:33:00,40.0,32.0,-100.00,NNW,327,0.0,0.0,72,0.00,,,0.00,0.000000,,2013-04-14 10:33:00,
2013-04-14 06:43:00,40.0,32.0,-100.00,NNW,327,0.0,0.0,72,0.00,,,0.00,0.000000,,2013-04-14 10:43:00,
2013-04-14 06:53:00,40.0,32.0,-100.00,NNW,327,0.0,0.0,72,0.00,,,0.00,0.000000,,2013-04-14 10:53:00,
2013-04-14 07:02:00,40.0,32.0,-100.00,NNW,327,0.0,0.0,72,0.00,,,0.00,0.000000,,2013-04-14 11:02:00,
2013-04-14 07:11:00,40.0,31.0,-100.00,NNW,333,0.0,4.0,70,0.00,,,0.00,3.000000,,2013-04-14 11:11:00,
2013-04-14 07:33:00,40.0,31.0,-100.00,NNW,333,0.0,4.0,70,0.00,,,0.00,3.000000,,2013-04-14 11:33:00,
2013-04-14 07:42:00,40.0,31.0,-100.00,NNW,333,0.0,4.0,70,0.00,,,0.00,3.000000,,2013-04-14 11:42:00,
2013-04-14 07:53:00,40.0,31.0,-100.00,NNW,333,0.0,4.0,70,0.00,,,0.00,3.000000,,2013-04-14 11:53:00,
2013-04-14 08:02:00,40.0,31.0,-100.00,NNW,333,0.0,4.0,70,0.00,,,0.00,3.000000,,2013-04-14 12:02:00,
2013-04-14 08:11:00,48.0,38.0,-100.00,SSE,162,0.0,0.0,69,0.00,,,0.00,129.000000,,2013-04-14 12:11:00,
2013-04-14 08:42:00,48.0,38.0,-100.00,SSE,162,0.0,0.0,69,0.00,,,0.00,129.000000,,2013-04-14 12:42:00,
2013-04-14 08:52:00,48.0,38.0,-100.00,SSE,162,0.0,0.0,69,0.00,,,0.00,129.000000,,2013-04-14 12:52:00,
2013-04-14 09:02:00,48.0,38.0,-100.00,SSE,162,0.0,0.0,69,0.00,,,0.00,129.000000,,2013-04-14 13:02:00,
2013-04-14 09:11:00,59.0,36.0,-100.00,West,275,3.0,4.0,42,0.00,,,0.00,383.000000,,2013-04-14 13:11:00,
2013-04-14 09:33:00,59.0,36.0,-100.00,West,275,3.0,4.0,42,0.00,,,0.00,383.000000,,2013-04-14 13:33:00,
2013-04-14 09:43:00,59.0,36.0,-100.00,West,275,3.0,4.0,42,0.00,,,0.00,383.000000,,2013-04-14 13:43:00,
2013-04-14 09:52:00,59.0,36.0,-100.00,West,275,3.0,4.0,42,0.00,,,0.00,383.000000,,2013-04-14 13:52:00,
2013-04-14 10:02:00,59.0,36.0,-100.00,West,275,3.0,4.0,42,0.00,,,0.00,383.000000,,2013-04-14 14:02:00,
2013-04-14 10:11:00,64.0,34.0,-100.00,WSW,246,4.0,7.0,32,0.00,,,0.00,622.000000,,2013-04-14 14:11:00,
2013-04-14 10:42:00,64.0,34.0,-100.00,WSW,246,4.0,7.0,32,0.00,,,0.00,622.000000,,2013-04-14 14:42:00,
2013-04-14 10:53:00,64.0,34.0,-100.00,WSW,246,4.0,7.0,32,0.00,,,0.00,622.000000,,2013-04-14 14:53:00,
2013-04-14 11:03:00,64.0,34.0,-100.00,WSW,246,4.0,7.0,32,0.00,,,0.00,622.000000,,2013-04-14 15:03:00,
2013-04-14 11:11:00,67.0,33.0,-100.00,WNW,282,5.0,9.0,28,0.00,,,0.00,825.000000,,2013-04-14 15:11:00,
2013-04-14 11:34:00,67.0,33.0,-100.00,WNW,282,5.0,9.0,28,0.00,,,0.00,825.000000,,2013-04-14 15:34:00,
2013-04-14 11:44:00,67.0,33.0,-100.00,WNW,282,5.0,9.0,28,0.00,,,0.00,825.000000,,2013-04-14 15:44:00,
2013-04-14 11:53:00,67.0,33.0,-100.00,WNW,282,5.0,9.0,28,0.00,,,0.00,825.000000,,2013-04-14 15:53:00,
2013-04-14 12:05:00,67.0,33.0,-100.00,WNW,282,5.0,9.0,28,0.00,,,0.00,825.000000,,2013-04-14 16:05:00,
2013-04-14 12:11:00,69.0,32.0,-100.00,West,272,6.0,11.0,25,0.00,,,0.00,857.000000,,2013-04-14 16:11:00,
2013-04-14 12:33:00,69.0,32.0,-100.00,West,272,6.0,11.0,25,0.00,,,0.00,857.000000,,2013-04-14 16:33:00,
2013-04-14 12:43:00,69.0,32.0,-100.00,West,272,6.0,11.0,25,0.00,,,0.00,857.000000,,2013-04-14 16:43:00,
2013-04-14 12:53:00,69.0,32.0,-100.00,West,272,6.0,11.0,25,0.00,,,0.00,857.000000,,2013-04-14 16:53:00,
2013-04-14 13:02:00,69.0,32.0,-100.00,West,272,6.0,11.0,25,0.00,,,0.00,857.000000,,2013-04-14 17:02:00,
2013-04-14 13:11:00,71.0,32.0,-100.00,WNW,301,7.0,14.0,24,0.00,,,0.00,853.000000,,2013-04-14 17:11:00,
2013-04-14 13:43:00,71.0,32.0,-100.00,WNW,301,7.0,14.0,24,0.00,,,0.00,853.000000,,2013-04-14 17:43:00,
2013-04-14 13:53:00,71.0,32.0,-100.00,WNW,301,7.0,14.0,24,0.00,,,0.00,853.000000,,2013-04-14 17:53:00,
2013-04-14 14:03:00,71.0,32.0,-100.00,WNW,301,7.0,14.0,24,0.00,,,0.00,853.000000,,2013-04-14 18:03:00,
2013-04-14 14:11:00,72.0,31.0,-100.00,WNW,302,7.0,15.0,22,0.00,,,0.00,811.000000,,2013-04-14 18:11:00,
2013-04-14 14:33:00,72.0,31.0,-100.00,WNW,302,7.0,15.0,22,0.00,,,0.00,811.000000,,2013-04-14 18:33:00,
2013-04-14 14:43:00,72.0,31.0,-100.00,WNW,302,7.0,15.0,22,0.00,,,0.00,811.000000,,2013-04-14 18:43:00,
2013-04-14 14:54:00,72.0,31.0,-100.00,WNW,302,7.0,15.0,22,0.00,,,0.00,811.000000,,2013-04-14 18:54:00,
2013-04-14 15:04:00,72.0,31.0,-100.00,WNW,302,7.0,15.0,22,0.00,,,0.00,811.000000,,2013-04-14 19:04:00,
2013-04-14 15:11:00,73.0,32.0,-100.00,NW,308,4.0,15.0,22,0.00,,,0.00,639.000000,,2013-04-14 19:11:00,
2013-04-14 15:33:00,73.0,32.0,-100.00,NW,308,4.0,15.0,22,0.00,,,0.00,639.000000,,2013-04-14 19:33:00,
2013-04-14 15:43:00,73.0,32.0,-100.00,NW,308,4.0,15.0,22,0.00,,,0.00,639.000000,,2013-04-14 19:43:00,
2013-04-14 15:53:00,73.0,32.0,-100.00,NW,308,4.0,15.0,22,0.00,,,0.00,639.000000,,2013-04-14 19:53:00,
2013-04-14 16:03:00,73.0,32.0,-100.00,NW,308,4.0,15.0,22,0.00,,,0.00,639.000000,,2013-04-14 20:03:00,
2013-04-14 16:11:00,70.0,33.0,-100.00,NW,304,5.0,13.0,25,0.00,,,0.00,361.000000,,2013-04-14 20:11:00,
2013-04-14 16:43:00,70.0,33.0,-100.00,NW,304,5.0,13.0,25,0.00,,,0.00,361.000000,,2013-04-14 20:43:00,
2013-04-14 16:53:00,70.0,33.0,-100.00,NW,304,5.0,13.0,25,0.00,,,0.00,361.000000,,2013-04-14 20:53:00,
2013-04-14 17:02:00,70.0,33.0,-100.00,NW,304,5.0,13.0,25,0.00,,,0.00,361.000000,,2013-04-14 21:02:00,
2013-04-14 17:11:00,70.0,34.0,-100.00,NNW,330,5.0,15.0,26,0.00,,,0.00,267.000000,,2013-04-14 21:11:00,
2013-04-14 17:43:00,70.0,34.0,-100.00,NNW,330,5.0,15.0,26,0.00,,,0.00,267.000000,,2013-04-14 21:43:00,
2013-04-14 17:54:00,70.0,34.0,-100.00,NNW,330,5.0,15.0,26,0.00,,,0.00,267.000000,,2013-04-14 21:54:00,
2013-04-14 18:03:00,70.0,34.0,-100.00,NNW,330,5.0,15.0,26,0.00,,,0.00,267.000000,,2013-04-14 22:03:00,
2013-04-14 18:11:00,68.0,33.0,-100.00,NW,311,6.0,14.0,27,0.00,,,0.00,162.000000,,2013-04-14 22:11:00,
2013-04-14 18:44:00,68.0,33.0,-100.00,NW,311,6.0,14.0,27,0.00,,,0.00,162.000000,,2013-04-14 22:44:00,
2013-04-14 18:53:00,68.0,33.0,-100.00,NW,311,6.0,14.0,27,0.00,,,0.00,162.000000,,2013-04-14 22:53:00,
2013-04-14 19:02:00,68.0,33.0,-100.00,NW,311,6.0,14.0,27,0.00,,,0.00,162.000000,,2013-04-14 23:02:00,
2013-04-14 19:11:00,65.0,32.0,-100.00,NW,317,6.0,17.0,29,0.00,,,0.00,50.000000,,2013-04-14 23:11:00,
2013-04-14 19:33:00,65.0,32.0,-100.00,NW,317,6.0,17.0,29,0.00,,,0.00,50.000000,,2013-04-14 23:33:00,
2013-04-14 19:43:00,65.0,32.0,-100.00,NW,317,6.0,17.0,29,0.00,,,0.00,50.000000,,2013-04-14 23:43:00,
2013-04-14 19:53:00,65.0,32.0,-100.00,NW,317,6.0,17.0,29,0.00,,,0.00,50.000000,,2013-04-14 23:53:00,
2013-04-14 20:02:00,65.0,32.0,-100.00,NW,317,6.0,17.0,29,0.00,,,0.00,50.000000,,2013-04-15 00:02:00,
2013-04-14 20:11:00,62.0,37.0,-100.00,NNW,333,3.0,11.0,39,0.00,,,-99.99,8.000000,,2013-04-15 00:11:00,
2013-04-14 20:33:00,62.0,37.0,-100.00,NNW,333,3.0,11.0,39,0.00,,,-99.99,8.000000,,2013-04-15 00:33:00,
2013-04-14 20:43:00,62.0,37.0,-100.00,NNW,333,3.0,11.0,39,0.00,,,-99.99,8.000000,,2013-04-15 00:43:00,
2013-04-14 20:53:00,62.0,37.0,-100.00,NNW,333,3.0,11.0,39,0.00,,,-99.99,8.000000,,2013-04-15 00:53:00,
2013-04-14 21:03:00,62.0,37.0,-100.00,NNW,333,3.0,11.0,39,0.00,,,-99.99,8.000000,,2013-04-15 01:03:00,
2013-04-14 21:11:00,62.0,34.0,-100.00,NW,318,6.0,12.0,35,0.00,,,0.00,0.000000,,2013-04-15 01:11:00,
2013-04-14 21:43:00,62.0,34.0,-100.00,NW,318,6.0,12.0,35,0.00,,,0.00,0.000000,,2013-04-15 01:43:00,
2013-04-14 21:52:00,62.0,34.0,-100.00,NW,318,6.0,12.0,35,0.00,,,0.00,0.000000,,2013-04-15 01:52:00,
2013-04-14 22:03:00,62.0,34.0,-100.00,NW,318,6.0,12.0,35,0.00,,,0.00,0.000000,,2013-04-15 02:03:00,
2013-04-14 22:11:00,57.0,34.0,-100.00,WNW,296,8.0,14.0,42,0.00,,,0.00,0.000000,,2013-04-15 02:11:00,
2013-04-14 22:32:00,57.0,34.0,-100.00,WNW,296,8.0,14.0,42,0.00,,,0.00,0.000000,,2013-04-15 02:32:00,
2013-04-14 22:42:00,57.0,34.0,-100.00,WNW,296,8.0,14.0,42,0.00,,,0.00,0.000000,,2013-04-15 02:42:00,
2013-04-14 22:53:00,57.0,34.0,-100.00,WNW,296,8.0,14.0,42,0.00,,,0.00,0.000000,,2013-04-15 02:53:00,
2013-04-14 23:03:00,57.0,34.0,-100.00,WNW,296,8.0,14.0,42,0.00,,,0.00,0.000000,,2013-04-15 03:03:00,
2013-04-14 23:11:00,53.0,42.0,-100.00,WSW,248,4.0,15.0,65,0.01,,,0.01,0.000000,,2013-04-15 03:11:00,
2013-04-14 23:43:00,53.0,42.0,-100.00,WSW,248,4.0,15.0,65,0.01,,,0.01,0.000000,,2013-04-15 03:43:00,
2013-04-14 23:55:00,53.0,42.0,-100.00,WSW,248,4.0,15.0,65,0.01,,,0.01,0.000000,,2013-04-15 03:55:00,